Stations météo

Publicité
Le Talut, France (7207): Température de l'air & dewpoint: 14.09.2018 07:00:00 - 20.09.2018 07:00:00 (CEST)Le Talut, France (7207): Vitesse du vent & gusts: 14.09.2018 07:00:00 - 20.09.2018 07:00:00 (CEST)Le Talut, France (7207): Direction du vent: 14.09.2018 07:00:00 - 20.09.2018 07:00:00 (CEST)Le Talut, France (7207): reduced air pressure: 14.09.2018 07:00:00 - 20.09.2018 07:00:00 (CEST)Le Talut, France (7207): visibility: 14.09.2018 07:00:00 - 20.09.2018 07:00:00 (CEST)Le Talut, France (7207): Quantités de précipitations: 14.09.2018 07:00:00 - 20.09.2018 07:00:00 (CEST)
Date & Time tt [°C] td [°C] ff [km/h] ff [knt] fx [km/h] fx [knt] dd ppp [hPa] vv [km] rr [mm]
20.09.2018 07:00:00 17,8 17,0 25 14 32 17 SW 1018,7 - 0,2
20.09.2018 06:00:00 17,8 16,8 22 12 34 18 SW 1019,0 - 0,0
20.09.2018 05:00:00 17,9 16,9 23 12 33 18 SW 1019,3 - 0,0
20.09.2018 04:00:00 17,7 16,9 27 14 36 20 SW 1019,6 - 0,0
20.09.2018 03:00:00 17,7 16,9 24 13 32 17 SW 1019,7 - 0,0
20.09.2018 02:00:00 17,8 17,2 22 12 32 17 SW 1019,9 - 0,0
20.09.2018 01:00:00 17,8 17,2 23 12 31 17 SW 1020,2 - 0,0
20.09.2018 00:00:00 17,7 16,9 21 12 31 17 SW 1020,6 - 0,0
19.09.2018 23:00:00 17,7 16,9 18 10 25 14 SW 1020,6 - 0,0
19.09.2018 22:00:00 17,7 16,9 16 9 24 13 SSW 1020,6 - 0,0
19.09.2018 21:00:00 17,9 16,9 15 8 24 13 WSW 1020,4 - 0,0
19.09.2018 20:00:00 18,0 16,7 17 9 27 15 SW 1020,2 10 0,0
19.09.2018 19:00:00 18,9 17,0 16 9 32 17 WSW 1020,2 - 0,0
19.09.2018 18:00:00 19,2 17,0 24 13 32 17 SW 1020,3 - 0,0
19.09.2018 17:00:00 20,0 17,0 24 13 32 17 SW 1020,3 - 0,0
19.09.2018 16:00:00 19,6 17,0 22 12 29 16 SW 1020,6 - 0,0
19.09.2018 15:00:00 20,5 17,1 23 12 29 16 SSW 1020,3 - 0,0
19.09.2018 14:00:00 20,0 16,8 22 12 30 16 SW 1020,5 15 0,0
19.09.2018 13:00:00 19,8 16,8 21 12 34 18 SW 1020,4 - 0,0
19.09.2018 12:00:00 19,0 16,8 26 14 33 18 SW 1019,9 - 0,0
19.09.2018 11:00:00 18,6 16,7 27 15 34 18 SW 1019,9 10 0,0
19.09.2018 10:00:00 18,1 16,8 20 11 30 16 SW 1019,2 - 0,0
19.09.2018 09:00:00 17,6 16,6 21 12 27 15 SW 1018,4 - 0,0
19.09.2018 08:00:00 17,3 16,5 21 12 29 16 SW 1017,8 12 0,0
19.09.2018 07:00:00 17,1 16,3 19 10 24 13 SW 1017,6 - 0,0
19.09.2018 06:00:00 17,2 16,4 16 9 26 14 SW 1017,8 - 0,2
19.09.2018 05:00:00 17,2 16,2 18 10 24 13 SW 1017,8 - 0,0
19.09.2018 04:00:00 17,5 16,4 20 11 29 15 SW 1017,8 - 0,0
19.09.2018 03:00:00 17,4 16,3 18 10 29 16 SW 1018,0 - 0,0
19.09.2018 02:00:00 17,7 16,6 20 11 29 16 SW 1018,1 - 0,0
19.09.2018 01:00:00 17,6 16,5 22 12 28 15 SW 1017,9 - 0,0
19.09.2018 00:00:00 17,5 16,4 16 9 26 14 SW 1017,6 - 0,0
18.09.2018 23:00:00 17,7 16,6 16 9 22 12 SW 1017,8 - 0,0
18.09.2018 22:00:00 17,8 16,7 16 9 23 12 SW 1017,7 - 0,0
18.09.2018 21:00:00 17,8 16,7 14 8 19 11 SW 1017,2 - 0,0
18.09.2018 20:00:00 18,3 16,6 14 7 20 11 SSW 1016,7 - 0,0
18.09.2018 19:00:00 19,3 16,9 16 8 18 10 SSW 1016,8 - 0,0
18.09.2018 18:00:00 20,0 16,6 15 8 19 10 S 1016,5 - 0,0
18.09.2018 17:00:00 20,7 16,7 14 7 18 10 S 1016,4 6 0,0
18.09.2018 16:00:00 21,1 16,3 11 6 16 9 S 1016,4 - 0,0
18.09.2018 15:00:00 20,5 16,3 11 6 18 10 SSW 1016,8 - 0,0
18.09.2018 14:00:00 20,4 16,2 12 7 23 12 WSW 1016,8 8 0,0
18.09.2018 13:00:00 19,6 15,9 16 9 23 12 WSW 1016,7 - 0,0
18.09.2018 12:00:00 19,3 16,1 14 8 20 11 WSW 1016,4 - 0,0
18.09.2018 11:00:00 18,7 16,1 14 8 19 10 WSW 1015,9 10 0,0
18.09.2018 10:00:00 17,9 16,4 16 8 25 14 WSW 1015,4 - 0,0
18.09.2018 09:00:00 17,5 16,4 13 7 23 12 WSW 1014,7 - 0,0
18.09.2018 08:00:00 17,4 16,6 15 8 19 10 SSW 1013,9 7 0,0
18.09.2018 07:00:00 17,7 16,6 12 7 26 14 W 1013,2 - 0,0
18.09.2018 06:00:00 18,1 17,3 21 11 41 22 W 1012,9 - 0,0
18.09.2018 05:00:00 18,6 17,3 29 16 43 23 WSW 1012,6 - 0,0
18.09.2018 04:00:00 18,2 17,0 21 12 41 22 WSW 1013,0 - 0,0
18.09.2018 03:00:00 18,3 17,3 26 14 41 22 SW 1013,0 - 0,0
18.09.2018 02:00:00 18,0 17,0 19 11 32 18 SW 1012,8 - 0,0
18.09.2018 01:00:00 18,3 17,0 20 11 42 23 WSW 1012,7 - 0,0
18.09.2018 00:00:00 18,3 17,0 21 11 35 19 WSW 1012,5 - 0,0
17.09.2018 23:00:00 18,2 17,4 20 11 29 15 SW 1012,4 - 0,0
17.09.2018 22:00:00 18,6 17,4 19 10 24 13 SSW 1012,3 - 0,0
17.09.2018 21:00:00 18,8 17,3 20 11 27 14 SSW 1012,1 - 0,0
17.09.2018 20:00:00 18,9 17,0 18 10 29 16 SSW 1012,0 15 0,0
17.09.2018 19:00:00 19,3 17,1 21 11 31 17 SSW 1012,2 - 0,0
17.09.2018 18:00:00 18,8 16,6 16 8 23 12 SSE 1012,8 - 0,0
17.09.2018 17:00:00 19,6 16,1 13 7 27 15 ESE 1013,3 - 0,0
17.09.2018 16:00:00 19,5 14,9 18 10 30 16 ESE 1013,8 - 0,0
17.09.2018 15:00:00 19,4 14,0 17 9 30 16 ESE 1014,3 - 0,0
17.09.2018 14:00:00 19,3 13,9 13 7 28 15 E 1014,8 18 0,0
17.09.2018 13:00:00 18,8 13,9 13 7 28 15 E 1015,7 - 0,0
17.09.2018 12:00:00 18,3 13,4 13 7 29 16 E 1016,0 - 0,0
17.09.2018 11:00:00 16,9 13,2 13 7 25 14 E 1016,5 12 0,0
17.09.2018 10:00:00 15,3 14,7 14 8 28 15 E 1016,7 - 0,0
17.09.2018 09:00:00 14,7 14,2 14 8 29 16 E 1017,3 - 0,0
17.09.2018 08:00:00 14,9 14,4 16 8 25 13 E 1017,7 0,9 0,0
17.09.2018 07:00:00 14,7 14,2 14 8 20 11 E 1018,0 - 0,0
17.09.2018 06:00:00 14,4 13,8 11 6 14 7 NE 1018,5 - 0,0
17.09.2018 05:00:00 14,7 14,1 0 0 6 3 N 1018,7 - 0,0
17.09.2018 04:00:00 14,6 13,6 2 1 7 4 E 1018,9 - 0,0
17.09.2018 03:00:00 14,8 13,8 3 2 5 3 WSW 1020,1 - 0,0
17.09.2018 02:00:00 14,4 13,3 3 2 7 4 WNW 1020,6 - 0,0
17.09.2018 01:00:00 15,2 13,7 3 1 5 3 SSW 1020,3 - 0,0
17.09.2018 00:00:00 15,4 13,9 4 2 11 6 W 1020,7 - 0,0
16.09.2018 23:00:00 15,9 13,9 9 5 16 9 NNW 1021,2 - 0,0
16.09.2018 22:00:00 15,9 12,8 10 6 14 8 NW 1021,1 - 0,0
16.09.2018 21:00:00 16,2 12,7 10 6 17 9 NW 1020,7 - 0,0
16.09.2018 20:00:00 17,7 13,2 10 5 18 10 NW 1020,5 20 0,0
16.09.2018 19:00:00 18,9 14,8 10 6 19 10 W 1020,5 - 0,0
16.09.2018 18:00:00 20,7 15,0 9 5 25 13 W 1020,2 - 0,0
16.09.2018 17:00:00 19,5 14,5 12 6 21 11 W 1020,3 - 0,0
16.09.2018 16:00:00 20,6 15,2 11 6 17 9 W 1020,7 - 0,0
16.09.2018 15:00:00 19,6 14,6 4 2 9 5 S 1021,0 - 0,0
16.09.2018 14:00:00 19,8 13,9 3 2 10 5 SW 1021,1 - 0,0
16.09.2018 13:00:00 18,6 13,5 5 3 13 7 SE 1021,2 - 0,0
16.09.2018 12:00:00 18,0 12,9 6 4 21 11 ESE 1021,3 - 0,0
16.09.2018 11:00:00 18,6 12,8 9 5 19 10 ESE 1021,2 - 0,0
16.09.2018 10:00:00 17,1 11,6 10 6 19 11 E 1020,8 - 0,0
16.09.2018 09:00:00 17,4 10,7 11 6 22 12 E 1020,4 - 0,0
16.09.2018 08:00:00 16,6 9,3 14 7 25 13 E 1019,8 20 0,0
16.09.2018 07:00:00 16,5 9,4 14 8 24 13 E 1019,8 - 0,0
16.09.2018 06:00:00 16,8 9,2 16 9 23 12 E 1020,1 - 0,0
16.09.2018 05:00:00 16,9 9,3 16 8 24 13 E 1020,6 - 0,0
16.09.2018 04:00:00 17,1 9,5 16 8 29 15 E 1021,0 - 0,0
16.09.2018 03:00:00 16,5 9,9 16 9 24 13 E 1021,4 - 0,0
16.09.2018 02:00:00 15,2 10,8 19 10 30 16 ENE 1021,9 - 0,0
16.09.2018 01:00:00 15,3 10,3 19 10 23 13 NE 1022,3 - 0,0
16.09.2018 00:00:00 14,4 9,6 21 11 24 13 NNE 1022,7 - 0,0
15.09.2018 23:00:00 14,1 9,3 17 9 24 13 NNE 1023,2 - 0,0
15.09.2018 22:00:00 13,8 10,8 16 9 21 11 NNE 1023,5 - 0,0
15.09.2018 21:00:00 13,9 8,9 16 9 21 11 N 1023,4 - 0,0
15.09.2018 20:00:00 17,2 9,6 10 5 13 7 NNW 1023,2 20 0,0
15.09.2018 19:00:00 19,4 11,2 3 2 13 7 W 1023,1 - 0,0
15.09.2018 18:00:00 18,8 10,6 6 3 16 8 WSW 1023,6 - 0,0
15.09.2018 17:00:00 18,9 11,0 8 4 13 7 SW 1024,0 20 0,0
15.09.2018 16:00:00 19,3 9,5 6 4 15 8 SE 1024,7 - 0,0
15.09.2018 15:00:00 18,8 11,4 8 5 19 10 ESE 1025,4 - 0,0
15.09.2018 14:00:00 18,7 12,0 9 5 23 13 E 1026,0 - 0,0
15.09.2018 13:00:00 17,6 11,8 10 5 29 16 ESE 1026,5 - 0,0
15.09.2018 12:00:00 17,1 11,8 13 7 29 15 ESE 1026,9 - 0,0
15.09.2018 11:00:00 16,6 11,9 13 7 32 17 E 1026,7 - 0,0
15.09.2018 10:00:00 16,1 11,5 14 8 29 15 E 1026,7 - 0,0
15.09.2018 09:00:00 14,3 11,4 16 8 24 13 E 1026,3 - 0,0
15.09.2018 08:00:00 12,2 9,8 15 8 21 11 ENE 1025,9 20 0,0
15.09.2018 07:00:00 12,3 9,8 16 9 21 11 NE 1025,9 - 0,0
15.09.2018 06:00:00 11,6 9,2 13 7 18 10 ENE 1025,5 - 0,0
15.09.2018 05:00:00 12,6 10,0 16 8 19 10 NE 1025,8 - 0,0
15.09.2018 04:00:00 12,8 10,2 14 8 21 11 NE 1025,8 - 0,0
15.09.2018 03:00:00 13,2 10,4 16 9 22 12 NE 1026,2 - 0,0
15.09.2018 02:00:00 12,9 10,1 15 8 27 14 NNE 1026,2 - 0,0
15.09.2018 01:00:00 13,6 10,4 18 10 28 15 NNE 1025,9 - 0,0
15.09.2018 00:00:00 14,2 10,4 20 11 29 15 N 1025,7 - 0,0
14.09.2018 23:00:00 14,8 10,6 18 10 29 16 N 1025,4 - 0,0
14.09.2018 22:00:00 15,5 11,7 21 11 33 18 NNW 1025,2 - 0,0
14.09.2018 21:00:00 15,8 11,8 25 13 38 21 NW 1024,9 - 0,0
14.09.2018 20:00:00 16,4 11,5 25 14 39 21 NW 1024,6 - 0,0
14.09.2018 19:00:00 17,6 10,5 16 9 29 15 NW 1024,4 - 0,0
14.09.2018 18:00:00 18,2 10,8 14 8 29 15 WNW 1024,4 - 0,0
14.09.2018 17:00:00 18,7 10,0 15 8 27 15 W 1024,5 - 0,0
14.09.2018 16:00:00 19,0 9,5 15 8 24 13 W 1024,7 - 0,0
14.09.2018 15:00:00 19,0 10,5 11 6 19 11 W 1024,7 - 0,0
14.09.2018 14:00:00 18,4 9,7 13 7 22 12 S 1024,8 - 0,0
14.09.2018 13:00:00 17,0 9,9 10 5 21 11 SW 1025,0 - 0,0
14.09.2018 12:00:00 18,2 9,0 8 4 21 11 E 1025,0 - 0,0
14.09.2018 11:00:00 17,1 10,5 12 7 21 11 NE 1024,6 - 0,0
14.09.2018 10:00:00 15,2 11,2 14 8 23 13 NNE 1024,4 - 0,0
14.09.2018 09:00:00 12,7 10,8 18 10 24 13 NNE 1024,1 - 0,0
14.09.2018 08:00:00 10,7 9,5 16 8 22 12 NNE 1024,0 20 0,0
14.09.2018 07:00:00 11,3 9,7 15 8 21 11 NNE 1023,6 - 0,0

tt = Température de l'air
td = dewpoint
ff = Vitesse du vent
fx = gusts
dd = Direction du vent
ppp = reduced air pressure
vv = visibility
rr = Quantités de précipitations

stations d'obs. à proximité